Waarnemingen

Advertentie
Mijn weer
Altnaharra, Groot Brittannië (3044): temperatuur & dauwpunt: 05.12.2017 02:00:00 - 11.12.2017 02:00:00 (GMT)Altnaharra, Groot Brittannië (3044): temperatuur -20cm & temperatuur -100cm: 05.12.2017 02:00:00 - 11.12.2017 02:00:00 (GMT)Altnaharra, Groot Brittannië (3044): windsnelheid & windstoten: 05.12.2017 02:00:00 - 11.12.2017 02:00:00 (GMT)Altnaharra, Groot Brittannië (3044): windrichting: 05.12.2017 02:00:00 - 11.12.2017 02:00:00 (GMT)Altnaharra, Groot Brittannië (3044): luchtdruk: 05.12.2017 02:00:00 - 11.12.2017 02:00:00 (GMT)Altnaharra, Groot Brittannië (3044): zicht: 05.12.2017 02:00:00 - 11.12.2017 02:00:00 (GMT)Altnaharra, Groot Brittannië (3044): Zonneschijnduur: 05.12.2017 02:00:00 - 11.12.2017 02:00:00 (GMT)Altnaharra, Groot Brittannië (3044): neerslag: 05.12.2017 02:00:00 - 11.12.2017 02:00:00 (GMT)
Datum & Tijd tt [°C] td [°C] tt -20cm [°C] tt -100cm [°C] ff [km/u] ff [kn] fx [km/u] fx [kn] dd ppp [hPa] vv [km] sd [min] rr [mm]
11.12.2017 02:00:00 - - - - - - - - - - - - -
11.12.2017 01:00:00 1,4 0,7 - - 4 2 - - ZZW 983,6 45 0 0,4
11.12.2017 00:00:00 1,4 0,8 - - 2 1 - - NNO 982,9 50 - 0,6
10.12.2017 23:00:00 1,7 0,9 - - 9 5 - - W 982,3 3,2 0 2,2
10.12.2017 22:00:00 1,3 0,5 - - 5 3 - - W 981,6 9 0 0,0
10.12.2017 21:00:00 1,1 0,5 - - 4 2 - - W 980,9 50 0 0,0
10.12.2017 20:00:00 1,1 0,4 - - 4 2 - - O 980,4 40 0 0,0
10.12.2017 19:00:00 0,9 0,2 - - 2 1 - - NNW 980,2 11 0 0,0
10.12.2017 18:00:00 1,4 0,7 - - 4 2 - - OZO 979,9 50 0 0,0
10.12.2017 17:00:00 1,0 0,0 - - 9 5 - - W 980,2 5 0 0,0
10.12.2017 16:00:00 0,9 -0,2 - - 13 7 - - WZW 980,3 2,7 0 0,0
10.12.2017 15:00:00 0,7 0,1 - - 11 6 - - W 980,9 1,5 6 0,0
10.12.2017 14:00:00 0,7 0,3 - - 8 4 - - WZW 981,2 35 24 0,0
10.12.2017 13:00:00 -2,2 -2,8 - - 4 2 - - WZW 981,7 50 60 0,0
10.12.2017 12:00:00 -7,0 -7,7 - - 8 4 - - W 982,8 28 42 0,0
10.12.2017 11:00:00 -8,2 -8,9 - - 5 3 - - NW 983,7 50 0 0,0
10.12.2017 10:00:00 -9,1 -9,9 - - 5 3 - - NW 984,7 50 0 0,0
10.12.2017 09:00:00 -10,5 -11,3 4,7 6,7 2 1 - - ONO 985,4 50 0 0,0
10.12.2017 08:00:00 -11,0 -12,1 - - 8 4 - - W 986,3 30 0 0,0
10.12.2017 07:00:00 -10,3 -11,3 - - 5 3 - - W 987,3 0,2 0 0,0
10.12.2017 06:00:00 -9,0 -10,1 - - 2 1 - - W 988,3 30 0 0,0
10.12.2017 05:00:00 -8,4 -9,4 - - 5 3 - - WNW 989,6 17 0 0,0
10.12.2017 04:00:00 -6,3 -7,4 - - 4 2 - - NNW 991,2 30 0 0,0
10.12.2017 03:00:00 -5,9 -6,9 - - 8 4 - - W 992,6 28 0 0,0
10.12.2017 02:00:00 -4,2 -4,8 - - 4 2 - - ZZW 994,1 21 0 0,0
10.12.2017 01:00:00 -3,1 -3,8 - - 4 2 - - W 995,2 45 0 0,0
10.12.2017 00:00:00 -1,8 -2,2 - - 4 2 - - ZW 996,5 35 - 0,0
09.12.2017 23:00:00 -0,9 -1,2 - - 4 2 - - ZZW 997,7 8 0 0,0
09.12.2017 22:00:00 -0,6 -0,9 - - 16 9 - - WZW 998,8 0,6 0 0,0
09.12.2017 21:00:00 -0,7 -1,1 - - 8 4 - - WZW 1000,0 7 0 0,0
09.12.2017 20:00:00 -1,6 -2,4 - - 4 2 - - W 1001,4 1,2 0 0,0
09.12.2017 19:00:00 -1,6 -2,4 - - 8 4 - - Z 1002,5 50 0 0,0
09.12.2017 18:00:00 -1,4 -2,1 - - 8 4 - - Z 1003,3 45 0 0,0
09.12.2017 17:00:00 -1,5 -2,5 - - 8 4 - - NNW 1004,6 0,5 0 0,0
09.12.2017 16:00:00 -0,8 -2,9 - - 8 4 - - ZW 1005,4 10 0 0,0
09.12.2017 15:00:00 -0,3 -3,0 - - 4 2 - - ONO 1005,9 28 0 0,0
09.12.2017 14:00:00 -0,6 -3,1 - - 8 4 - - WZW 1006,9 30 18 0,0
09.12.2017 13:00:00 0,4 -1,9 - - 22 12 - - WNW 1008,1 30 18 0,0
09.12.2017 12:00:00 0,1 -1,4 - - 11 6 - - W 1008,8 35 12 0,0
09.12.2017 11:00:00 0,4 -1,2 - - 13 7 - - W 1009,5 45 0 0,0
09.12.2017 10:00:00 -0,2 -0,9 - - 24 13 - - W 1010,4 3,7 0 0,0
09.12.2017 09:00:00 -0,1 -0,9 4,9 6,7 21 11 - - W 1010,6 3,4 0 0,0
09.12.2017 08:00:00 -0,5 -1,2 - - 21 11 - - WZW 1011,1 40 0 0,0
09.12.2017 07:00:00 -1,0 -2,7 - - 21 11 - - W 1011,6 45 0 0,0
09.12.2017 06:00:00 -1,5 -2,3 - - 9 5 - - W 1012,1 30 0 0,0
09.12.2017 05:00:00 0,0 -1,7 - - 21 11 - - W 1012,4 45 0 0,0
09.12.2017 04:00:00 0,5 -1,4 - - 35 19 50 27 W 1012,9 6 0 0,0
09.12.2017 03:00:00 0,8 -1,1 - - 24 13 - - WNW 1013,2 40 0 0,0
09.12.2017 02:00:00 0,5 -0,8 - - 26 14 - - W 1013,4 40 0 0,0
09.12.2017 01:00:00 -0,4 -1,6 - - 13 7 - - W 1014,1 40 0 0,0
09.12.2017 00:00:00 0,2 -1,2 - - 18 10 50 27 W 1014,1 2,7 - 0,2
08.12.2017 23:00:00 0,3 -1,9 - - 18 10 46 25 W 1013,8 45 0 0,2
08.12.2017 22:00:00 1,3 -0,7 - - 34 18 52 28 WNW 1013,7 13 0 0,0
08.12.2017 21:00:00 2,0 -1,5 - - 29 16 52 28 WNW 1013,6 30 0 0,6
08.12.2017 20:00:00 2,0 -0,1 - - 28 15 54 29 W 1013,5 6 0 0,4
08.12.2017 19:00:00 2,0 -0,8 - - 37 20 63 34 W 1013,1 18 0 0,6
08.12.2017 18:00:00 1,5 -0,9 - - 44 24 63 34 W 1012,5 1,4 0 0,2
08.12.2017 17:00:00 2,3 -2,0 - - 39 21 65 35 WNW 1011,8 4,7 0 0,4
08.12.2017 16:00:00 1,8 -1,7 - - 39 21 57 31 WNW 1011,1 2,2 0 0,0
08.12.2017 15:00:00 2,5 -3,0 - - 46 25 65 35 WNW 1010,2 26 0 0,6
08.12.2017 14:00:00 1,5 -1,5 - - 37 20 63 34 WNW 1010,2 5 6 0,2
08.12.2017 13:00:00 2,2 -3,2 - - 35 19 63 34 W 1009,6 21 24 0,4
08.12.2017 12:00:00 1,4 -3,7 - - 42 23 65 35 W 1009,2 28 12 0,0
08.12.2017 11:00:00 0,9 -3,1 - - 46 25 61 33 WNW 1009,4 22 0 0,0
08.12.2017 10:00:00 0,9 -4,6 - - 42 23 81 44 W 1008,8 30 0 0,0
08.12.2017 09:00:00 0,5 -4,4 5,7 6,7 44 24 68 37 W 1008,4 35 0 0,0
08.12.2017 08:00:00 0,8 -4,7 - - 44 24 65 35 WNW 1007,6 29 0 0,0
08.12.2017 07:00:00 0,9 -4,1 - - 46 25 74 40 W 1007,0 24 0 0,0
08.12.2017 06:00:00 0,9 -2,8 - - 44 24 72 39 WNW 1006,0 35 0 0,0
08.12.2017 05:00:00 -0,5 -1,2 - - 48 26 70 38 WNW 1005,5 6 0 0,0
08.12.2017 04:00:00 0,8 -2,2 - - 46 25 67 36 W 1004,6 7 0 0,0
08.12.2017 03:00:00 1,2 -3,6 - - 35 19 61 33 W 1004,1 35 0 0,0
08.12.2017 02:00:00 0,7 -4,2 - - 42 23 67 36 WNW 1003,9 40 0 0,0
08.12.2017 01:00:00 0,1 -2,4 - - 42 23 72 39 W 1003,5 10 0 0,0
08.12.2017 00:00:00 0,1 -3,1 - - 44 24 78 42 W 1003,0 40 - 0,0
07.12.2017 23:00:00 1,0 -2,1 - - 42 23 76 41 W 1002,3 1,7 0 0,0
07.12.2017 22:00:00 1,5 -2,4 - - 39 21 68 37 W 1001,5 19 0 0,0
07.12.2017 21:00:00 1,7 -1,8 - - 37 20 70 38 W 1000,4 23 0 0,2
07.12.2017 20:00:00 0,9 -0,2 - - 34 18 68 37 W 999,6 2,7 0 0,2
07.12.2017 19:00:00 2,2 0,7 - - 48 26 76 41 W 998,5 17 0 0,0
07.12.2017 18:00:00 2,6 1,5 - - 39 21 70 38 W 998,0 13 0 0,0
07.12.2017 17:00:00 2,4 1,5 - - 57 31 94 51 WNW 996,6 12 0 0,2
07.12.2017 16:00:00 2,7 2,0 - - 63 34 94 51 WNW 994,8 23 0 0,4
07.12.2017 15:00:00 2,3 2,2 - - 61 33 106 57 W 993,4 12 0 0,4
07.12.2017 14:00:00 2,7 2,6 - - 61 33 91 49 W 991,4 - 0 1,4
07.12.2017 13:00:00 3,0 3,0 - - 59 32 89 48 W 988,9 - 0 0,8
07.12.2017 12:00:00 4,4 4,4 - - 65 35 104 56 W 985,9 - 0 1,6
07.12.2017 11:00:00 3,7 3,7 - - 80 43 124 67 W 983,8 - 0 1,8
07.12.2017 10:00:00 3,9 3,9 - - 81 44 128 69 W 980,8 - 0 1,8
07.12.2017 09:00:00 4,4 4,4 6,9 6,7 74 40 120 65 WZW 979,1 5 0 1,4
07.12.2017 08:00:00 4,2 3,9 - - 74 40 111 60 WZW 978,5 1,1 0 2,0
07.12.2017 07:00:00 5,6 3,8 - - 61 33 96 52 WZW 978,1 9 0 0,6
07.12.2017 06:00:00 6,5 4,0 - - 26 14 68 37 ZZW 978,0 35 0 0,8
07.12.2017 05:00:00 6,3 1,8 - - 37 20 76 41 Z 979,9 13 0 0,0
07.12.2017 04:00:00 5,8 0,2 - - 28 15 61 33 ZZW 982,1 27 0 0,0
07.12.2017 03:00:00 5,4 1,2 - - 29 16 67 36 ZZW 983,9 17 0 0,0
07.12.2017 02:00:00 7,4 5,9 - - 21 11 46 25 ZW 984,2 5 0 0,0
07.12.2017 01:00:00 8,7 7,2 - - 39 21 65 35 WZW 984,1 14 0 2,2
07.12.2017 00:00:00 11,8 10,5 - - 24 13 48 26 Z 983,6 13 - 0,8
06.12.2017 23:00:00 12,5 10,3 - - 26 14 48 26 Z 985,2 27 0 0,0
06.12.2017 22:00:00 12,4 10,3 - - 28 15 48 26 Z 987,5 45 0 0,2
06.12.2017 21:00:00 12,2 10,0 - - 28 15 46 25 Z 989,6 45 0 0,0
06.12.2017 20:00:00 12,0 10,3 - - 29 16 - - ZZO 991,9 50 0 0,2
06.12.2017 19:00:00 11,5 10,3 - - 22 12 - - Z 993,6 6 0 1,2
06.12.2017 18:00:00 11,4 9,9 - - 22 12 - - Z 995,1 12 0 0,4
06.12.2017 17:00:00 11,3 9,6 - - 24 13 - - Z 996,8 35 0 0,4
06.12.2017 16:00:00 10,8 9,5 - - 26 14 - - Z 998,5 40 0 0,2
06.12.2017 15:00:00 11,0 8,8 - - 24 13 - - Z 1000,1 40 0 0,2
06.12.2017 14:00:00 10,5 8,5 - - 16 9 - - Z 1001,6 6 0 0,0
06.12.2017 13:00:00 10,2 8,3 - - 15 8 - - Z 1003,4 50 0 0,2
06.12.2017 12:00:00 9,6 8,3 - - 24 13 46 25 Z 1004,6 15 0 0,2
06.12.2017 11:00:00 9,5 7,9 - - 22 12 - - Z 1005,8 8 0 0,2
06.12.2017 10:00:00 9,6 7,4 - - 13 7 - - Z 1007,0 35 0 0,0
06.12.2017 09:00:00 9,9 7,1 6,2 6,5 9 5 46 25 ZZO 1008,5 40 0 0,0
06.12.2017 08:00:00 10,8 7,0 - - 28 15 54 29 Z 1009,4 50 0 0,0
06.12.2017 07:00:00 10,2 7,8 - - 24 13 48 26 ZZW 1010,4 22 0 0,0
06.12.2017 06:00:00 10,0 8,5 - - 18 10 - - ZZW 1010,9 13 0 0,2
06.12.2017 05:00:00 10,3 9,1 - - 18 10 - - ZZW 1011,2 7 0 1,2
06.12.2017 04:00:00 10,6 9,3 - - 18 10 54 29 ZW 1011,8 5 0 1,4
06.12.2017 03:00:00 11,0 9,7 - - 26 14 50 27 ZW 1012,1 9 0 1,8
06.12.2017 02:00:00 10,9 9,8 - - 26 14 52 28 ZW 1012,4 4,3 0 0,6
06.12.2017 01:00:00 10,9 9,8 - - 24 13 50 27 ZW 1012,6 3,5 0 1,0
06.12.2017 00:00:00 11,0 9,9 - - 26 14 48 26 ZW 1012,8 2,9 - 0,8
05.12.2017 23:00:00 11,0 9,7 - - 24 13 52 28 ZW 1013,1 3,3 0 0,4
05.12.2017 22:00:00 11,1 9,7 - - 28 15 55 30 ZW 1013,2 12 0 0,4
05.12.2017 21:00:00 11,0 9,5 - - 24 13 50 27 ZW 1013,6 10 0 0,8
05.12.2017 20:00:00 10,5 9,2 - - 22 12 - - ZZW 1014,0 9 0 1,0
05.12.2017 19:00:00 10,1 8,6 - - 18 10 - - ZZW 1014,6 20 0 0,4
05.12.2017 18:00:00 9,7 8,3 - - 26 14 48 26 Z 1015,4 8 0 2,0
05.12.2017 17:00:00 9,6 7,7 - - 21 11 - - ZZW 1016,4 11 0 0,6
05.12.2017 16:00:00 9,6 7,2 - - 15 8 - - ZZW 1017,3 14 0 0,0
05.12.2017 15:00:00 9,7 6,5 - - 21 11 - - ZZW 1018,3 40 0 0,0
05.12.2017 14:00:00 9,2 6,1 - - 15 8 - - ZZW 1019,4 45 0 0,0
05.12.2017 13:00:00 9,7 6,3 - - 18 10 - - ZZW 1020,2 50 0 0,0
05.12.2017 12:00:00 9,5 6,4 - - 24 13 57 31 ZW 1021,1 27 0 0,0
05.12.2017 11:00:00 9,5 7,1 - - 29 16 55 30 ZW 1021,2 30 0 0,0
05.12.2017 10:00:00 9,2 7,3 - - 26 14 48 26 ZW 1021,3 7 0 0,4
05.12.2017 09:00:00 8,8 7,3 5,7 6,4 24 13 52 28 ZW 1021,7 3,7 0 0,2
05.12.2017 08:00:00 9,0 7,3 - - 24 13 46 25 ZW 1021,6 20 0 0,2
05.12.2017 07:00:00 8,2 6,5 - - 28 15 52 28 ZW 1022,0 10 0 0,2
05.12.2017 06:00:00 8,5 7,5 - - 24 13 54 29 ZW 1022,2 3,5 0 0,4
05.12.2017 05:00:00 8,7 7,5 - - 26 14 54 29 ZW 1022,4 6 0 0,4
05.12.2017 04:00:00 8,7 7,1 - - 35 19 54 29 ZW 1022,8 10 0 0,0
05.12.2017 03:00:00 8,7 7,3 - - 29 16 57 31 ZW 1023,1 5 0 0,2
05.12.2017 02:00:00 8,4 7,2 - - 34 18 57 31 ZW 1023,1 3,5 0 0,0

tt = temperatuur
td = dauwpunt
tt -20cm = temperatuur -20cm
tt -100cm = temperatuur -100cm
ff = windsnelheid
fx = windstoten
dd = windrichting
ppp = luchtdruk
vv = zicht
sd = Zonneschijnduur
rr = neerslag

Weerstations in de omgeving